www.pogodaiklimat.ru

Погода и климат >> Архив погоды >> Россия >> Татарстан >> Чулпаново


АРХИВ ПОГОДЫ в Чулпаново

Время (UTC), дата Ветер
(напр.,м/с)
 
Видим.   Явления Облачность Т
(С)
Тd
(С)
f
(%)
Тe
(С)
Тes
(С)
Комфортность P
(гПа)
Po
(гПа)
Тmin
(С)
Tmax
(С)
R
(мм)
R24
(мм)
S
(см)
06 17.07 В 2 20 км 10/0
[Ac As Ci sp]
+22.3 +15.0 63 +26 +32 жарко 1012.6 1003.7
09 17.07 В 2 20 км в посл. час дождь 10/0
[Ac As]
+21.2 +16.2 73 +25 +29 комфорт 1012.6 1003.6
12 17.07 В 1 10 км слаб. дождь 10/0
[Ac As]
+19.6 +16.1 80 +23 +26 комфорт 1012.2 1003.2
15 17.07 В 2 20 км {дождь} 10/0
[Ac As]
+19.7 +16.4 81 +23 +23 комфорт 1011.1 1002.1 +22.3 3
18 17.07 СВ 2 20 км {дождь} 6/0
[Ac As Ci sp]
+17.1 +15.3 89 +17 +17 1010.2 1001.2
21 17.07 СВ 2 20 км 10/0
[Ac As]
+16.1 +14.6 91 +16 +16 1009.2 1000.1
00 18.07 СВ 2 20 км {дождь} 10/0
[Ac As Ci sp]
+15.7 +14.7 94 +16 +16 1008.8 999.7
03 18.07 СВ 2 20 км 10/3 1000 м
[Cu hum Ac As]
+17.3 +15.4 89 +18 +18 1007.4 998.4 +15.7 0.5
06 18.07 СВ 2 20 км 3/0
[Ac trans]
+25.3 +16.4 58 +29 +38 душно 1005.9 997.1
09 18.07 В 4 20 км 3/3 1000 м
[Cu hum]
+28.9 +15.4 44 +32 +39 душно 1004.8 996.1
12 18.07 В 4 20 км 4/3 1000 м
[Cu hum Ci fib]
+30.2 +16.3 43 +33 +37 душно 1004.2 995.6
15 18.07 СВ 3 20 км 8/6 1000 м
[Cu hum Ac trans Ci fib]
+26.6 +18.5 61 +31 +32 душно 1004.2 995.5 +30.6
18 18.07 З 2 20 км 8/3 600 м
[Cb cap Ac trans Ci fib]
+23.4 +17.9 71 +29 +29 душно 1005.6 996.8
21 18.07 ЮЗ 1 20 км 3/0
[Ci fib]
+18.0 +15.8 87 +19 +19 1006.3 997.3
00 19.07 ЮЗ 2 20 км 3/0
[Ci sp]
+16.2 +15.2 94 +16 +16 1007.1 998.1
03 19.07 ЮЗ 2 20 км 10/0
[Ac trans Ci fib]
+19.3 +17.3 88 +22 +24 комфорт 1007.6 998.7 +16.0
06 19.07 З 4 20 км 10/3 1000 м
[Cu med, cong Ac trans Ci sp]
+24.0 +17.7 68 +28 +31 душно 1007.9 999.1
09 19.07 ЮЗ 2 20 км 10/4 600 м
[Cb cap Ac trans Ci fib]
+25.4 +17.8 63 +30 +34 душно 1008.8 1000.0
12 19.07 З 4 20 км 6/3 1000 м
[Cu hum Ci fib]
+28.1 +13.3 40 +30 +34 жарко 1008.9 1000.2
15 19.07 ЮЗ 1 20 км 3/1 1000 м
[Cu hum Ci fib]
+26.3 +14.6 49 +29 +30 жарко 1009.3 1000.5 +28.3
18 19.07 ЮЗ 1 20 км 3/0
[Ac trans Ci fib]
+19.3 +15.6 79 +22 +22 комфорт 1010.3 1001.3
21 19.07 ЮЗ 1 20 км ясно +15.0 +14.0 94 +15 +15 1010.8 1001.7
00 20.07 ЮЗ 1 20 км местами туман поземный 3/0
[Ci fib]
+13.8 +12.7 93 +14 +14 1011.8 1002.6
03 20.07 ЮЗ 1 20 км 3/1 1000 м
[Cu hum Ci fib]
+16.8 +14.8 88 +18 +20 1012.3 1003.2 +12.6
06 20.07 З 3 20 км 3/1 1000 м
[Cu hum Ci sp]
+25.1 +11.9 44 +27 +35 жарко 1012.2 1003.4
09 20.07 З 3 20 км 3/3 1000 м
[Cu hum]
+27.0 +10.4 35 +28 +36 жарко 1012.2 1003.4
12 20.07 З 4 20 км 4/4 1000 м
[Cu hum]
+27.7 +9.6 32 +28 +31 жарко 1012.0 1003.2
15 20.07 З 3 20 км 3/3 1000 м
[Cu hum]
+25.4 +10.5 39 +26 +27 жарко 1012.6 1003.8 +28.1
18 20.07 ЮЗ 1 20 км 3/0
[Ci sp]
+16.6 +12.8 78 +17 +17 1013.4 1004.3
21 20.07 ЮЗ 1 20 км 4/0
[Ac trans Ci fib]
+14.9 +12.4 85 +15 +15 1013.4 1004.2
00 21.07 ЮЗ 2 20 км 3/0
[Ci fib]
+12.4 +10.6 89 +11 +11 1013.6 1004.4
03 21.07 Ю 3 20 км ясно +16.8 +13.8 82 +17 +19 1014.0 1004.9 +12.4
06 21.07 З 3 20 км 4/3 1000 м
[Cu hum Ac trans Ci fib]
+22.8 +14.0 58 +26 +32 жарко 1013.5 1004.6
09 21.07 З 5
{10}
20 км 10/4 1000 м
[Cb cap Ac trans Ci fib]
+23.8 +12.0 48 +26 +28 жарко 1013.1 1004.2
12 21.07 ЮЗ 3 20 км 10/3 1000 м
[Cu hum Ac trans Ci fib]
+25.8 +12.8 44 +28 +30 жарко 1012.2 1003.4
15 21.07 З 2 20 км 10/3 1000 м
[Cu hum Ac trans Ci fib]
+23.0 +15.1 61 +27 +27 душно 1012.6 1003.7 +26.5
18 21.07 ЮЗ 1 20 км 3/1 600 м
[Cb cap Ac trans]
+16.2 +13.7 85 +17 +17 1013.2 1004.1
21 21.07 ЮЗ 2 2000 м 3/0
[Ac trans]
+14.6 +13.1 91 +14 +14 1012.8 1003.7
00 22.07 ЮЗ 1 20 км местами туман поземный ясно +12.7 +11.8 94 +13 +13 1012.9 1003.6
03 22.07 ЮЗ 2 20 км 1/0
[Ci fib]
+15.6 +14.4 93 +15 +18 1013.0 1003.9 +11.1
06 22.07 З 3 20 км 8/6 1000 м
[Cu hum Ci fib]
+21.8 +13.2 58 +24 +28 комфорт 1011.9 1003.0
09 22.07 З 4 20 км 10/8 600 м
[Cb cap Ci fib]
+22.9 +11.2 48 +25 +27 комфорт 1011.0 1002.1
12 22.07 З 5
{10}
20 км 9/8 600 м
[Cb cap Ac trans Ci fib]
+22.2 +11.4 50 +24 +25 комфорт 1010.9 1002.0
15 22.07 З 4 20 км 8/3 1000 м
[Cu hum Ac trans Ci fib]
+21.1 +12.4 58 +23 +24 комфорт 1010.8 1001.8 +23.8
18 22.07 З 2 20 км 10/3 600 м
[Cb cap Ac As]
+17.5 +12.9 74 +18 +18 1011.4 1002.4
21 22.07 З 1 20 км 10/0
[Ac trans Ci fib]
+14.1 +12.1 88 +14 +14 1011.7 1002.5
00 23.07 З 2 20 км 1/0
[Ac trans]
+13.2 +11.8 91 +12 +12 1012.0 1002.8
03 23.07 З 2 20 км 3/0
[Ac trans]
+15.9 +13.3 85 +16 +18 1012.9 1003.8 +11.6
06 23.07 З 3 20 км 10/3 1000 м
[Cu hum Ac trans Ci fib]
+19.8 +12.2 62 +22 +25 комфорт 1013.0 1004.0
09 23.07 З 2 20 км 10/4 1000 м
[Cu hum Ac trans Ci fib]
+21.8 +11.4 52 +24 +28 комфорт 1013.5 1004.6
12 23.07 З 4 20 км 10/3 1000 м
[Cu hum Ac trans Ci fib]
+23.6 +11.0 45 +25 +27 комфорт 1013.6 1004.7
15 23.07 СЗ 2 20 км 8/3 1000 м
[Cu hum Ci fib]
+22.2 +12.6 54 +25 +25 комфорт 1014.0 1005.1 +24.2
18 23.07 СЗ 1 20 км 3/0
[Ci fib]
+15.6 +12.4 81 +16 +16 1015.4 1006.2
21 23.07 ЮВ 1 20 км ясно +11.0 +9.5 90 +11 +11 1016.0 1006.7
00 24.07 СЗ 1 10 км туман поземный 3/0
[Ci fib]
+8.5 +7.6 94 +8 +8 1016.7 1007.3
03 24.07 СЗ 1 20 км 8/0
[Ac trans Ci fib]
+13.7 +12.6 93 +14 +16 1017.1 1007.9 +8.0

 

Местоположение метеостанции Чулпаново (Татарстан, Россия): широта 54.50 долгота 50.42 высота над уровнем моря 77 м.

В архиве по умолчанию представлена погода в Чулпаново за последнюю неделю. Архивные данные за месяц целиком и за предыдущие месяцы, начиная с января 2011 года, Вы можете получить, выбрав интересующий диапазон дат из раскрывающегося списка и нажав кнопку "Ввод!".


*Определитесь, кто Вы:
робот инопланетянин человек

Внимание! Время в таблицах - всемирное. Для получения местного времени необходимо прибавить поправку, которая равна 3 ч.

Смотрите также архив погоды в соседних городах и на ближайших метеорологических станциях:

Погода в Аксубаево (Татарстан, Россия) (43 км)
Погода в Челно-Вершинах (Самарская область, Россия) (45 км)
Погода в Димитровграде (Ульяновская область, Россия) (61 км)
Погода в Серноводске (Самарская область, Россия) (85 км)
Погода в Алексеевском (Татарстан, Россия) (91 км)
Погода в Чистополе (Татарстан, Россия) (92 км)
Погода в Клявлино (Самарская область, Россия) (107 км)
Погода в Камском Устье (Татарстан, Россия) (109 км)
Погода в Курумоче (Самарская область, Россия) (112 км)
Погода в Тетюшах (Татарстан, Россия) (117 км)

Пояснения к столбцам:

Ветер - указаны скорость ветра в м/с - средняя за 10 мин, порывы в срок и между сроками (в фигурных скобках) и направление, откуда дует ветер: С - северный, СВ - северо-восточный, В - восточный, ЮВ - юго-восточный, Ю - южный, ЮЗ - юго-западный, З - западный, СЗ - северо-западный.
Видимость - горизонтальная дальность видимости в метрах или километрах. При видимости от 1 до 10 км при отсутствии осадков обычно наблюдается дымка, при ухудшении видимости до 1 км и менее - туман. В сухую погоду видимость может ухудшаться дымом, пылью или мглою.
Явления - указаны атмосферные явления, наблюдавшиеся в срок или в последний час перед сроком; фигурными скобками обозначены явления, наблюдавшиеся между сроками (за 1-3 часа до срока); квадратными скобками обозначены град или гололедные отложения с указанием их диаметра в мм.
Облачность - указаны через наклонную черту общая и нижняя облачность в баллах и высота нижней границы облаков в метрах; квадратными скобками обозначены формы облаков: Ci - перистые, Cs - перисто-слоистые, Cc - перисто-кучевые, Ac - высококучевые, As - высокослоистые, Sc - слоисто-кучевые, Ns - слоисто-дождевые, Cu - кучевые, Cb - кучево-дождевые. Подробнее классификацию облаков см. в Атласе облаков (PDF).
T - Температура воздуха - температура, измеренная на высоте 2 м над землей.
Td - Температура точки росы - температура, при понижении до которой содержащийся в воздухе водяной пар достигнет насыщения.
f - Относительная влажность воздуха - влажноcть воздуха, измеренная на высоте 2 м над землей.
Te - Эффективная температура - температура, которую ощущает одетый по сезону человек в тени. Характеристика душности погоды. При расчете учитывается влияние влажности воздуха и скорости ветра на теплоощущения человека.
Tes - Эффективная температура на солнце - температура, которую ощущает человек, с поправкой на солнечный нагрев. Характеристика знойности погоды. Зависит от высоты солнца над горизонтом, облачности и скорости ветра. Ночью, в пасмурную погоду, а также при ветре 12 м/с и более поправка равна нулю.
P - Атмосферное давление - приведенное к уровню моря атмосферное давление.
Po - Атмосферное давление - измеренное на уровне метеостанции атмосферное давление.
Tmin - Минимальная температура - минимум температуры воздуха на высоте 2 м над землей.
Tmax - Максимальная температура - максимум температуры воздуха на высоте 2 м над землей.
R - Количество осадков - Количество выпавших осадков за период времени, мм. При наведении курсора мыши на число - период времени, за который выпало указанное количество осадков.
R24 - Количество осадков - Количество выпавших осадков за 24 часа, мм.
S - Снежный покров - Высота снежного покрова, см. При наведении курсора мыши на число - состояние снежного покрова и степень покрытия местности в баллах.